Flag for United Kingdom Weather past 2 weeks in Horsham, England, United Kingdom

Now
43 °F

Clear.


Feels Like: 37 °F
Forecast: N/A
Wind: 10 mph from Northwest

Location: London / Gatwick Airport

Current Time: Mar 26, 2015 at 10:43:02 PM

Latest Report: Mar 26, 2015 at 10:20 PM


Visibility: 10 mi

Pressure: 29.95 "Hg

Humidity: 66%

Dew point: 32 °F

Location of HorshamLocation

Historic Weather in Horsham — Graph

°F

Horsham temperature yesterday

Maximum temperature yesterday: 48 °F (at 2:20 PM)
Minimum temperature yesterday: 32 °F (at 12:20 AM)
Average temperature yesterday: 40 °F

Past Weeks' High & Low Weather Summary

 TemperatureHumidityPressure
High55 °F (Mar 26, 1:20 PM)100% (Mar 12, 12:20 AM)30.51 "Hg (Mar 12, 12:20 AM)
Low27 °F (Mar 23, 2:20 AM)30% (Mar 12, 1:50 PM)29.56 "Hg (Mar 26, 8:50 AM)
Average43 °F77%30.19 "Hg
* Reported Mar 11 9:20 PM — Mar 26 9:20 PM, Horsham, Weather by CustomWeather, © 2015

Note: Actual official high and low records may vary slightly from our data, if they occured in-between our weather recording intervals... More about our weather records

Advertising

Horsham weather history for previous 24 hours

 ConditionsComfort  
Time TempWeatherWind HumidityBarometerVisibility
9:20 PM
Thu, Mar 26
45 °FClear.10 mph61%29.92 "Hg10 mi
8:50 PM45 °FClear.10 mph66%29.89 "Hg10 mi
8:20 PM43 °FClear.10 mph66%29.89 "Hg10 mi
7:50 PM46 °FClear.10 mph57%29.86 "Hg10 mi
7:20 PM48 °FClear.12 mph54%29.83 "Hg10 mi
6:50 PM48 °FClear.12 mph54%29.83 "Hg10 mi
6:20 PM48 °FSunny.13 mph54%29.80 "Hg10 mi
5:50 PM50 °FPassing clouds.17 mph54%29.77 "HgN/A
5:20 PM52 °FPassing clouds.18 mph54%29.77 "HgN/A
4:50 PM54 °FScattered clouds.16 mph51%29.74 "HgN/A
4:20 PM55 °FBroken clouds.15 mph55%29.71 "HgN/A
3:50 PM54 °FSunny.15 mph58%29.71 "Hg10 mi
3:20 PM54 °FScattered clouds.15 mph63%29.68 "HgN/A
2:50 PM52 °FScattered clouds.14 mph77%29.68 "HgN/A
2:20 PM52 °FScattered clouds.14 mph77%29.68 "HgN/A
1:50 PM48 °FPartly sunny.16 mph87%29.65 "HgN/A
1:20 PM55 °FScattered clouds.16 mph63%29.62 "HgN/A
12:50 PM54 °FPartly sunny.14 mph72%29.59 "HgN/A
12:20 PM52 °FBroken clouds.15 mph77%29.59 "HgN/A
11:50 AM52 °FBroken clouds.14 mph88%29.59 "HgN/A
11:20 AM48 °FBroken clouds.13 mph94%29.59 "HgN/A
10:50 AM48 °FBroken clouds.10 mph94%29.56 "HgN/A
10:20 AM45 °FPartly sunny.7 mph100%29.56 "Hg4 mi
9:50 AM45 °FDrizzle. Partly sunny.8 mph93%29.56 "Hg3 mi
9:20 AM43 °FLight rain. Partly sunny.10 mph93%29.56 "Hg4 mi
8:50 AM43 °FDrizzle. Partly sunny.13 mph93%29.56 "Hg3 mi
7:50 AM41 °FDrizzle. Partly sunny.14 mph93%29.59 "Hg4 mi
7:20 AM41 °FLight rain. Broken clouds.13 mph93%29.59 "Hg4 mi
6:50 AM39 °FRain. Partly sunny.13 mph93%29.62 "Hg2 mi
6:20 AM39 °FLight rain. Partly sunny.10 mph93%29.62 "Hg6 mi
5:50 AM39 °FLight rain. Partly sunny.16 mph93%29.62 "HgN/A
5:20 AM41 °FLight rain. Partly cloudy.14 mph81%29.65 "HgN/A
4:50 AM43 °FLight rain. Passing clouds.12 mph81%29.65 "HgN/A
4:20 AM43 °FLight rain. Partly cloudy.10 mph87%29.68 "HgN/A
3:50 AM43 °FLight rain. Partly cloudy.8 mph81%29.68 "HgN/A
3:20 AM41 °FLight rain. Passing clouds.7 mph81%29.71 "HgN/A
2:50 AM41 °FClear.7 mph81%29.71 "Hg10 mi
2:20 AM39 °FClear.6 mph87%29.74 "Hg6 mi
1:50 AM39 °FClear.5 mph87%29.77 "Hg6 mi
1:20 AM37 °FClear.3 mph93%29.77 "Hg6 mi
12:50 AM37 °FClear.5 mph93%29.80 "Hg6 mi
12:20 AM37 °FClear.5 mph93%29.80 "Hg6 mi
11:50 PM
Wed, Mar 25
37 °FClear.5 mph93%29.83 "Hg6 mi
11:20 PM37 °FClear.5 mph87%29.83 "Hg6 mi
10:50 PM37 °FClear.7 mph87%29.83 "Hg6 mi
10:20 PM37 °FClear.7 mph87%29.83 "Hg10 mi
Weather by CustomWeather, © 2015

See weather overviewHow to use our weather pages